[[{"header":{"parameterUnit":"m.s-1","parameterCategory":1,"la1":30.2991,"la2":30.254,"lo1":-89.0895,"lo2":-89.0444,"dy":0.0017,"dx":0.0017,"nx":28,"ny":28,"refTime":"2025-08-15T21:00:00:Z","depth":0,"parameterNumber":2,"parameterNumberName":"U-component_of_WINDS"},"data":[0,0,0,0,0,0,0,0,0,0,0,0,0,0,0,0,0,0,0,0,0,0,0,0,0,0,0,0,0,0,0,0,0,0,0,0,0,0,0,0,0,0,0,0,0,0,0,0,0,0,0,0,0,0,0,0,0,0,2.4402,2.4402,0,2.4434,2.4435,2.4435,2.4381,2.4379,2.4377,2.4376,2.4407,2.4409,2.4412,0,0,0,0,0,0,0,0,0,0,0,0,0,2.4293,2.4295,2.4402,2.4402,2.4403,2.4434,2.4435,2.4435,2.4381,2.4379,2.4377,2.4375,2.4406,2.4409,2.4412,0,0,0,0,0,0,0,0,0,0,0,0,0,2.4334,2.4296,2.4402,2.438,2.4378,2.4434,2.4435,2.4435,2.4382,2.4379,2.4376,2.4374,2.4405,2.4409,2.4413,2.4491,0,0,2.4424,2.4426,0,0,0,0,0,0,0,0,2.4332,2.4338,2.4383,2.4381,2.438,2.4401,2.4408,2.4454,2.4382,2.438,2.4376,2.4372,2.4407,2.441,2.4423,2.4493,2.4494,2.4425,2.4427,2.4429,2.443,0,0,0,0,0,0,0,2.4329,2.4337,2.4415,2.4383,2.4381,2.4368,2.4371,2.4416,2.4409,2.438,2.4376,2.4381,2.4406,2.4419,2.4423,2.4494,2.4424,2.4428,2.443,2.4432,2.4632,2.4635,0,0,0,0,0,0,2.4329,2.4335,2.4414,2.4416,2.4349,2.4372,2.4375,2.4397,2.4408,2.4407,2.4383,2.4378,2.4414,2.4418,2.4424,2.4517,2.4429,2.4432,2.4434,2.4629,2.4633,2.4636,0,0,0,0,0,0,2.4327,2.4337,2.4412,2.4374,2.4383,2.4377,2.4401,2.4399,2.4412,2.441,2.4409,2.4399,2.4412,2.4418,2.4475,2.4518,2.4434,2.4437,2.4626,2.4631,2.4635,2.4705,0,0,0,0,0,0,2.4324,2.4336,2.4366,2.4375,2.4385,2.4464,2.4404,2.4401,2.4419,2.4413,2.4424,2.4423,2.441,2.447,2.4479,2.4522,2.444,2.4622,2.4628,2.4633,2.4699,2.4712,2.4722,0,0,0,0,0,2.432,2.4384,2.4368,2.4378,2.4422,2.4466,2.4472,2.4456,2.4423,2.4453,2.4452,2.4423,2.4512,2.4476,2.4486,2.453,2.4619,2.4626,2.4633,2.4694,2.4709,2.4722,0,0,0,0,0,0,2.4379,2.4385,2.4367,2.4435,2.4451,2.4457,2.4494,2.4472,2.4497,2.449,2.4469,2.4472,2.4534,2.4537,2.4498,2.4608,2.456,2.4569,2.4603,2.4617,2.4629,2.4626,2.4443,0,0,0,0,0,2.44,2.4435,2.4438,2.4498,2.4507,2.45,2.4518,2.4505,2.452,2.4526,2.4529,2.4544,2.4576,2.4597,2.4625,2.47,2.4702,2.4735,2.4747,2.4756,2.4764,2.4805,2.482,2.4659,2.4659,2.4659,0,0,2.4443,2.4451,2.4474,2.451,2.4521,2.4558,2.4505,2.4547,2.4574,2.4532,2.4586,2.459,2.4605,2.4671,2.4701,2.4677,2.4809,2.4765,2.4773,2.4775,2.4813,2.4829,2.4842,2.4663,2.4663,2.4662,0,0,2.4541,2.455,2.4602,2.4614,2.4631,2.4626,2.4639,2.4649,2.465,2.4704,2.4674,2.4706,2.476,2.4773,2.4787,2.4892,2.4867,2.4902,2.4963,2.5003,2.5016,2.5027,2.5065,2.5079,2.491,2.4911,2.4911,0,2.4593,2.4648,2.4631,2.4675,2.4693,2.4657,2.471,2.4722,2.4747,2.476,2.4733,2.4802,2.481,2.4879,2.4905,2.4917,2.4931,2.4901,2.5015,2.5026,2.5036,2.5073,2.5087,2.4915,2.4914,2.4914,2.4914,0,2.4711,2.475,2.479,2.4817,2.4838,2.4886,2.4877,2.4901,2.4886,2.4884,2.4941,2.4949,2.498,2.4995,2.4981,2.5063,2.5048,2.5019,2.497,2.5056,2.509,2.5104,2.4921,2.4919,2.4918,2.4917,0,0,2.4845,2.4864,2.4879,2.4891,2.4908,2.4938,2.4985,2.5016,2.5037,2.5056,2.5095,2.5143,2.5117,2.5132,2.5119,2.5154,2.5239,2.512,2.5121,2.5142,2.5331,2.5353,2.5369,2.5222,2.5225,2.5227,2.533,0,2.4943,2.5025,2.5012,2.5091,2.5127,2.5095,2.5136,2.5152,2.5151,2.5182,2.5181,2.5216,2.5178,2.5187,2.5221,2.5221,2.5276,2.5214,2.5258,2.526,2.5255,2.5387,2.541,2.5506,2.5343,2.5345,2.5346,0,2.5068,2.5094,2.5177,2.519,2.5205,2.5242,2.527,2.53,2.5316,2.5314,2.5333,2.5314,2.5361,2.5312,2.5377,2.5335,2.5353,2.5356,2.5359,2.5363,2.5308,2.5394,2.5537,2.5551,2.5367,2.5365,2.5364,0,2.5159,2.5214,2.5271,2.5282,2.5299,2.5326,2.5334,2.5348,2.5368,2.5393,2.5405,2.5435,2.5451,2.5474,2.5464,2.5429,2.5531,2.5481,2.553,2.5531,2.5553,2.5552,2.5701,2.5565,2.5564,2.5564,2.5564,0,2.527,2.5322,2.5312,2.5347,2.5405,2.539,2.5447,2.5451,2.5465,2.55,2.5474,2.5508,2.5492,2.5525,2.5517,2.5572,2.558,2.5579,2.5576,2.5581,2.5582,2.5592,2.5585,2.5568,2.5567,2.5566,2.5566,0,2.538,2.5375,2.5436,2.5447,2.5451,2.5493,2.5503,2.5536,2.5535,2.558,2.559,2.5587,2.5624,2.5617,2.5657,2.5652,2.5722,2.5711,2.5717,2.5714,2.5764,2.5759,2.5925,2.5946,2.5796,2.5798,2.5799,0,2.5451,2.5491,2.5507,2.553,2.554,2.5576,2.5597,2.5584,2.5607,2.563,2.5661,2.5696,2.5723,2.5785,2.5786,2.5818,2.5807,2.5863,2.5812,2.5816,2.5808,2.5806,2.581,2.5873,2.5875,2.5876,2.5877,0,2.5578,2.5574,2.5605,2.5637,2.5663,2.5686,2.5707,2.5727,2.5716,2.5743,2.5782,2.5803,2.5846,2.5881,2.5911,2.5919,2.5897,2.5894,2.5907,2.5912,2.5914,2.5915,2.5745,2.589,2.5889,2.5888,2.5887,2.5887,2.5671,2.5705,2.5723,2.5759,2.5774,2.5795,2.5827,2.583,2.5862,2.5896,2.5887,2.5931,2.5948,2.5986,2.5997,2.6031,2.601,2.6029,2.6034,2.6039,2.6045,2.5909,2.6037,2.6036,2.6036,2.6036,2.6035,0,2.5797,2.5807,2.5841,2.5872,2.5901,2.5879,2.5901,2.5926,2.5966,2.5984,2.6012,2.6057,2.6092,2.6097,2.613,2.6157,2.6148,2.6166,2.6164,2.6166,2.6062,2.6047,2.6173,2.6173,2.6173,2.6173,2.6173,2.6173,2.5866,2.5923,2.5922,2.5986,2.5996,2.604,2.6055,2.6074,2.6088,2.614,2.6169,2.6173,2.6186,2.622,2.6252,2.6252,2.6266,2.6288,2.6285,2.6187,2.6173,2.616,2.6147,2.6291,2.6291,2.6386,2.6387,2.6388]},{"header":{"parameterUnit":"m.s-1","parameterCategory":1,"la1":30.2991,"la2":30.254,"lo1":-89.0895,"lo2":-89.0444,"dy":0.0017,"dx":0.0017,"nx":28,"ny":28,"refTime":"2025-08-15T21:00:00:Z","depth":0,"parameterNumber":3,"parameterNumberName":"V-component_of_WINDS"},"data":[0,0,0,0,0,0,0,0,0,0,0,0,0,0,0,0,0,0,0,0,0,0,0,0,0,0,0,0,0,0,0,0,0,0,0,0,0,0,0,0,0,0,0,0,0,0,0,0,0,0,0,0,0,0,0,0,0,0,-2.4735,-2.4736,0,-2.4812,-2.4813,-2.4813,-2.4802,-2.48,-2.4799,-2.4798,-2.4875,-2.4878,-2.4881,0,0,0,0,0,0,0,0,0,0,0,0,0,-2.4576,-2.4579,-2.4735,-2.4736,-2.4737,-2.4812,-2.4813,-2.4814,-2.4802,-2.48,-2.4799,-2.4797,-2.4874,-2.4877,-2.4881,0,0,0,0,0,0,0,0,0,0,0,0,0,-2.4648,-2.458,-2.4734,-2.474,-2.4741,-2.4811,-2.4813,-2.4814,-2.4802,-2.48,-2.4798,-2.4796,-2.4872,-2.4877,-2.4882,-2.4951,0,0,-2.4897,-2.4899,0,0,0,0,0,0,0,0,-2.4644,-2.4654,-2.4738,-2.474,-2.4741,-2.4795,-2.4785,-2.486,-2.4803,-2.4779,-2.4798,-2.4795,-2.485,-2.4856,-2.4875,-2.4955,-2.4958,-2.4897,-2.49,-2.4902,-2.4904,0,0,0,0,0,0,0,-2.4639,-2.4651,-2.4765,-2.4739,-2.4741,-2.4738,-2.4746,-2.4799,-2.4824,-2.4781,-2.478,-2.4789,-2.485,-2.487,-2.4877,-2.4959,-2.4897,-2.4901,-2.4904,-2.4906,-2.5101,-2.5103,0,0,0,0,0,0,-2.4633,-2.4647,-2.4763,-2.4767,-2.4687,-2.4742,-2.4751,-2.478,-2.4824,-2.4828,-2.4791,-2.4789,-2.4863,-2.4871,-2.4879,-2.4964,-2.4902,-2.4907,-2.491,-2.5099,-2.5102,-2.5104,0,0,0,0,0,0,-2.463,-2.4643,-2.476,-2.4707,-2.4721,-2.4747,-2.4779,-2.4782,-2.4802,-2.4831,-2.4836,-2.4807,-2.4862,-2.4872,-2.4934,-2.4967,-2.4909,-2.4913,-2.5096,-2.51,-2.5103,-2.5134,0,0,0,0,0,0,-2.4625,-2.4642,-2.4669,-2.4708,-2.4724,-2.4813,-2.4781,-2.4785,-2.4811,-2.4809,-2.4848,-2.4852,-2.4861,-2.4927,-2.4939,-2.4972,-2.4917,-2.5093,-2.5098,-2.5102,-2.513,-2.5138,-2.5145,0,0,0,0,0,-2.462,-2.4674,-2.4671,-2.4685,-2.4758,-2.4815,-2.4825,-2.4834,-2.4814,-2.4841,-2.486,-2.4851,-2.4961,-2.4933,-2.4947,-2.4982,-2.5091,-2.5097,-2.5101,-2.5127,-2.5136,-2.5144,0,0,0,0,0,0,-2.4638,-2.4679,-2.4676,-2.4744,-2.4777,-2.4813,-2.4847,-2.4844,-2.4881,-2.4877,-2.4887,-2.4896,-2.4958,-2.4976,-2.4944,-2.5052,-2.5023,-2.5031,-2.5038,-2.5047,-2.5054,-2.5049,-2.4921,0,0,0,0,0,-2.465,-2.4693,-2.4727,-2.4784,-2.48,-2.4821,-2.4846,-2.4851,-2.4884,-2.4897,-2.4921,-2.4953,-2.4995,-2.5022,-2.5062,-2.5133,-2.5141,-2.5164,-2.5171,-2.5177,-2.5184,-2.5223,-2.5234,-2.5121,-2.5121,-2.512,0,0,-2.4675,-2.4703,-2.4729,-2.4788,-2.4814,-2.4858,-2.4833,-2.488,-2.4913,-2.4904,-2.4964,-2.4982,-2.5019,-2.5086,-2.5116,-2.5102,-2.5217,-2.5183,-2.5188,-2.5191,-2.5229,-2.524,-2.525,-2.5124,-2.5123,-2.5123,0,0,-2.4744,-2.4769,-2.482,-2.4847,-2.4886,-2.4899,-2.4912,-2.4949,-2.4962,-2.5022,-2.5017,-2.5056,-2.5128,-2.5154,-2.5177,-2.5257,-2.5251,-2.527,-2.5308,-2.5346,-2.5355,-2.5363,-2.5392,-2.5402,-2.5277,-2.5277,-2.5277,0,-2.477,-2.4837,-2.4847,-2.4895,-2.4922,-2.4917,-2.4969,-2.4994,-2.5044,-2.5062,-2.5046,-2.5137,-2.5161,-2.5234,-2.5254,-2.5273,-2.5287,-2.5265,-2.5353,-2.5361,-2.5369,-2.5397,-2.5407,-2.5279,-2.5279,-2.5279,-2.5278,0,-2.4867,-2.4914,-2.495,-2.5,-2.503,-2.508,-2.5097,-2.5127,-2.5129,-2.5145,-2.5207,-2.5236,-2.5282,-2.53,-2.5302,-2.5374,-2.5364,-2.5351,-2.5322,-2.5382,-2.5408,-2.5419,-2.5282,-2.5281,-2.5281,-2.528,0,0,-2.4948,-2.5004,-2.5017,-2.504,-2.5084,-2.5119,-2.5169,-2.5216,-2.5241,-2.5276,-2.5318,-2.538,-2.5368,-2.5394,-2.54,-2.5433,-2.5496,-2.5416,-2.5417,-2.543,-2.5577,-2.5587,-2.5599,-2.5492,-2.5494,-2.5496,-2.5574,0,-2.5021,-2.511,-2.5121,-2.52,-2.5243,-2.524,-2.5284,-2.5315,-2.5331,-2.537,-2.5388,-2.5431,-2.5412,-2.5428,-2.5462,-2.5481,-2.5525,-2.5476,-2.5531,-2.5533,-2.5522,-2.5613,-2.5623,-2.5695,-2.5584,-2.5586,-2.5587,0,-2.5118,-2.5157,-2.524,-2.5279,-2.5297,-2.5336,-2.538,-2.5417,-2.5453,-2.5462,-2.5492,-2.5494,-2.5546,-2.5515,-2.5587,-2.5553,-2.5576,-2.559,-2.5593,-2.5598,-2.5563,-2.562,-2.5719,-2.573,-2.5603,-2.5602,-2.5601,0,-2.5169,-2.5242,-2.5302,-2.5321,-2.5368,-2.5395,-2.5416,-2.545,-2.5477,-2.5516,-2.5534,-2.5577,-2.5601,-2.5635,-2.5648,-2.5625,-2.5719,-2.569,-2.5728,-2.5728,-2.5748,-2.5746,-2.5851,-2.5763,-2.5763,-2.5763,-2.5762,0,-2.5249,-2.5301,-2.5326,-2.5362,-2.542,-2.5432,-2.5488,-2.5508,-2.5538,-2.5579,-2.5579,-2.5616,-2.5632,-2.5672,-2.5683,-2.5741,-2.5751,-2.576,-2.5762,-2.576,-2.5759,-2.5775,-2.5771,-2.5765,-2.5765,-2.5764,-2.5764,0,-2.5316,-2.5335,-2.54,-2.5439,-2.545,-2.5491,-2.5524,-2.5559,-2.5576,-2.5627,-2.5639,-2.5664,-2.5712,-2.5729,-2.5786,-2.5794,-2.5861,-2.5859,-2.5849,-2.585,-2.5887,-2.5884,-2.6006,-2.6023,-2.5924,-2.5925,-2.5925,0,-2.5366,-2.5405,-2.5449,-2.5477,-2.5498,-2.5542,-2.5571,-2.5585,-2.5614,-2.5659,-2.5689,-2.5737,-2.5775,-2.5851,-2.5875,-2.5919,-2.5918,-2.5958,-2.5924,-2.5921,-2.5919,-2.5916,-2.5921,-2.5964,-2.5965,-2.5966,-2.5966,0,-2.5453,-2.546,-2.5501,-2.5547,-2.5581,-2.5617,-2.5651,-2.5674,-2.5693,-2.5726,-2.5775,-2.5806,-2.5865,-2.5912,-2.5958,-2.5979,-2.5976,-2.5977,-2.5988,-2.5986,-2.5979,-2.5984,-2.5866,-2.5974,-2.5973,-2.5973,-2.5972,-2.5972,-2.5513,-2.5548,-2.5585,-2.5631,-2.5659,-2.5691,-2.5727,-2.5748,-2.579,-2.584,-2.5845,-2.5898,-2.5934,-2.5995,-2.6018,-2.606,-2.6049,-2.6065,-2.6069,-2.6073,-2.6076,-2.5973,-2.6068,-2.6068,-2.6068,-2.6068,-2.6067,0,-2.5599,-2.5623,-2.5666,-2.5715,-2.5751,-2.5747,-2.5785,-2.5816,-2.5863,-2.5897,-2.5935,-2.5992,-2.6038,-2.6066,-2.6112,-2.614,-2.614,-2.6152,-2.615,-2.6155,-2.6083,-2.6069,-2.6151,-2.6151,-2.6151,-2.6151,-2.6151,-2.6151,-2.5649,-2.5709,-2.5721,-2.5795,-2.5818,-2.587,-2.5893,-2.5923,-2.5951,-2.6014,-2.6053,-2.6071,-2.6103,-2.6151,-2.6194,-2.6201,-2.6218,-2.6231,-2.6236,-2.6169,-2.616,-2.6152,-2.6138,-2.6234,-2.6234,-2.6305,-2.6306,-2.6306]}]]